(84484) = 2002 TY270

Discovered at Socorro on 2002-10-09 by LINEAR.

Orbit

Orbit type: Main Belt

Note: WebGL enabled browser required.

epoch2024-03-31.0
epoch JD2460400.5
perihelion date2024-12-03.47142
perihelion JD2460647.97142
argument of perihelion (°)254.47857
ascending node (°)216.36126
inclination (°)13.64491
eccentricity0.0543006
perihelion distance (AU)2.4750554
Tisserand w.r.t. Jupiter3.4
ΔV w.r.t. Earth (km/sec)10.7
semimajor axis (AU)2.6171693
mean anomaly (°)302.39222
mean daily motion (°/day)0.23278560
aphelion distance (AU)2.759
period (years)4.23
P-vector [x]-0.33963404
P-vector [y]0.92778169
P-vector [z]0.15449874
Q-vector [x]-0.93010081
Q-vector [y]-0.30687001
Q-vector [z]-0.20184966
absolute magnitude15.4
phase slope0.15
uncertainty0
referenceMPEC 2024-C46
observations used1116
oppositions19
arc length (days)11607
first opposition used1992
last opposition used2024
residual rms (arc-secs)0.71
perturbers coarse indicatorM-v
perturbers precise indicator003Ek
first observation date used1992-04-25.0
last observation date used2024-02-04.0
computer nameMPCLINUX
JD of orbit computation2456966.892002
perihelion JD uncertainty (days)1.8832E-04
argument of perihelion uncertainty (°)4.3628E-05
ascending node uncertainty (°)1.4089E-05
inclination uncertainty (°)3.6700E-06
eccentricity uncertainty 2.8608E-08
perihelion distance uncertainty (AU)7.4229E-08
Minimum Orbit Intersection Distances (in AU)
for orbit epoch: 2460200.5, reference: E2024-C46
Mercury2.16785
Venus1.78278
Earth1.5264
Mars0.96492
Jupiter2.3595
Saturn6.58849
Uranus15.9451
Neptune27.2424

Observations

1148 total observations over interval: 1992 04 25.38745 – 2024 02 04.245829
These data are available for download (format description).

Date (UT) J2000 RA J2000 Dec Magn Location Ref
1992 04 25.38745 14 55 28.02 -14 38 51.1 20.0 V 691 – Steward Observatory, Kitt Peak-Spacewatch MPS 69985
1992 04 25.40819 14 55 26.96 -14 38 40.0   691 – Steward Observatory, Kitt Peak-Spacewatch MPS 69985
1992 04 25.43603 14 55 25.60 -14 38 24.5   691 – Steward Observatory, Kitt Peak-Spacewatch MPS 69985
1998 09 19.11496 03 24 42.50 +19 21 55.5 19.9 V 910 – Caussols-ODAS MPS 68113
1998 09 19.13456 03 24 42.67 +19 21 51.1 20.1 V 910 – Caussols-ODAS MPS 68113
1998 09 19.15448 03 24 42.84 +19 21 46.2 20.3 V 910 – Caussols-ODAS MPS 68113
1998 10 18.37737 03 17 44.60 +16 20 55.2 18.9 R 699 – Lowell Observatory-LONEOS MPS 68113
1998 10 18.40150 03 17 43.73 +16 20 42.1   699 – Lowell Observatory-LONEOS MPS 68113
1998 10 18.43028 03 17 42.52 +16 20 27.7   699 – Lowell Observatory-LONEOS MPS 68113
2000 03 09.36731 11 10 44.40 -11 54 42.2 18.9   704 – Lincoln Laboratory ETS, New Mexico MPS 69985
2000 03 09.38014 11 10 43.79 -11 54 37.4 19.3   704 – Lincoln Laboratory ETS, New Mexico MPS 69985
2000 03 09.39298 11 10 43.01 -11 54 28.2 19.8   704 – Lincoln Laboratory ETS, New Mexico MPS 69985
2000 03 09.40582 11 10 42.43 -11 54 21.6 19.7   704 – Lincoln Laboratory ETS, New Mexico MPS 69985
2000 03 09.41872 11 10 41.89 -11 54 14.7 19.4   704 – Lincoln Laboratory ETS, New Mexico MPS 69985
2000 04 04.21349 10 53 40.48 -07 31 23.9 18.9 R 699 – Lowell Observatory-LONEOS MPS 68113
2000 04 04.22935 10 53 40.03 -07 31 14.4   699 – Lowell Observatory-LONEOS MPS 68113
2000 04 04.24520 10 53 39.54 -07 31 05.3   699 – Lowell Observatory-LONEOS MPS 68113
2000 04 04.26101 10 53 39.16 -07 30 54.2   699 – Lowell Observatory-LONEOS MPS 68113
2002 09 28.59596 01 20 26.14 +16 14 23.6 19.7   608 – Haleakala-AMOS MPS 69985
2002 09 28.60648 01 20 25.63 +16 14 17.7 20.6   608 – Haleakala-AMOS MPS 69985
2002 09 28.61707 01 20 25.20 +16 14 12.6 20.5   608 – Haleakala-AMOS MPS 69985
2002 10 04.26157 01 16 16.98 +15 25 25.2 19.1   704 – Lincoln Laboratory ETS, New Mexico MPS 69985
2002 10 04.27733 01 16 16.22 +15 25 16.3 19.1   704 – Lincoln Laboratory ETS, New Mexico MPS 69985
2002 10 04.29294 01 16 15.46 +15 25 07.8 19.1   704 – Lincoln Laboratory ETS, New Mexico MPS 69985
2002 10 04.30866 01 16 14.72 +15 24 59.3 19.4   704 – Lincoln Laboratory ETS, New Mexico MPS 69985
2002 10 04.32439 01 16 13.97 +15 24 50.6 19.3   704 – Lincoln Laboratory ETS, New Mexico MPS 69985
2002 10 04.49860 01 16 05.75 +15 23 13.8 18.7   644 – Palomar Mountain/NEAT MPS 69985
2002 10 04.50946 01 16 05.23 +15 23 07.7 18.8   644 – Palomar Mountain/NEAT MPS 69985
2002 10 04.51982 01 16 04.74 +15 23 02.0 18.9   644 – Palomar Mountain/NEAT MPS 69985
2002 10 09.25835 01 12 23.07 +14 37 59.5 19.1   704 – Lincoln Laboratory ETS, New Mexico MPS 64237
2002 10 09.27401 01 12 22.33 +14 37 50.0 19.5   704 – Lincoln Laboratory ETS, New Mexico MPS 64237
2002 10 09.28950 01 12 21.56 +14 37 40.8 19.4   704 – Lincoln Laboratory ETS, New Mexico MPS 64237
2002 10 09.30505 01 12 20.76 +14 37 31.4 19.3   704 – Lincoln Laboratory ETS, New Mexico MPS 64237
2002 10 09.32083 01 12 19.97 +14 37 22.2 19.5   704 – Lincoln Laboratory ETS, New Mexico MPS 64237
2002 10 12.25459 01 10 00.07 +14 08 02.6 18.8   704 – Lincoln Laboratory ETS, New Mexico MPS 64237
2002 10 12.27106 01 09 59.25 +14 07 52.6 18.8   704 – Lincoln Laboratory ETS, New Mexico MPS 64237
2002 10 12.28766 01 09 58.44 +14 07 42.4 18.8   704 – Lincoln Laboratory ETS, New Mexico MPS 64237
2002 10 12.30437 01 09 57.62 +14 07 32.6 18.8   704 – Lincoln Laboratory ETS, New Mexico MPS 64237
2002 10 12.32111 01 09 56.81 +14 07 22.2 19.1   704 – Lincoln Laboratory ETS, New Mexico MPS 64237
2002 10 30.14916 00 56 44.82 +11 00 56.1 18.7   644 – Palomar Mountain/NEAT MPS 66225
2002 10 30.17036 00 56 43.99 +11 00 43.3 18.6   644 – Palomar Mountain/NEAT MPS 66225
2002 10 30.19760 00 56 42.90 +11 00 26.9 18.7   644 – Palomar Mountain/NEAT MPS 66225
2002 11 01.26465 00 55 26.35 +10 39 25.1 19.2   704 – Lincoln Laboratory ETS, New Mexico MPS 66225
2002 11 01.28174 00 55 25.71 +10 39 14.4 19.4   704 – Lincoln Laboratory ETS, New Mexico MPS 66225
2002 11 01.29913 00 55 25.01 +10 39 04.2 19.5   704 – Lincoln Laboratory ETS, New Mexico MPS 66225
2002 11 03.46997 00 54 09.83 +10 17 26.3 19.8   608 – Haleakala-AMOS MPS 66225
2002 11 03.48077 00 54 09.50 +10 17 20.0 20.2   608 – Haleakala-AMOS MPS 66225
2002 11 03.49169 00 54 09.12 +10 17 13.6 20.1   608 – Haleakala-AMOS MPS 66225
2002 11 12.16327 00 50 10.01 +08 56 57.2 19.3   704 – Lincoln Laboratory ETS, New Mexico MPS 66225
2002 11 12.18047 00 50 09.71 +08 56 48.4 19.5   704 – Lincoln Laboratory ETS, New Mexico MPS 66225
2002 11 12.19756 00 50 09.32 +08 56 39.9 19.8   704 – Lincoln Laboratory ETS, New Mexico MPS 66225
2002 11 12.21485 00 50 08.86 +08 56 30.5 19.3   704 – Lincoln Laboratory ETS, New Mexico MPS 66225
2002 11 12.23213 00 50 08.53 +08 56 20.6 19.7   704 – Lincoln Laboratory ETS, New Mexico MPS 66225
2003 01 04.09618 01 05 12.41 +05 59 39.4 20.1   704 – Lincoln Laboratory ETS, New Mexico MPS 69985
2003 01 04.11165 01 05 13.06 +05 59 41.3 20.3   704 – Lincoln Laboratory ETS, New Mexico MPS 69985
2003 01 04.12716 01 05 13.96 +05 59 41.8 20.3   704 – Lincoln Laboratory ETS, New Mexico MPS 69985
2003 01 04.14244 01 05 14.65 +05 59 45.3 20.3   704 – Lincoln Laboratory ETS, New Mexico MPS 69985
2004 01 16.39043 09 38 24.24 -07 41 54.9 19.3   644 – Palomar Mountain/NEAT MPS 97006
2004 01 16.41259 09 38 23.44 -07 41 56.8 19.2   644 – Palomar Mountain/NEAT MPS 97006
2004 01 16.43773 09 38 22.50 -07 41 59.0 19.4   644 – Palomar Mountain/NEAT MPS 97006
2004 01 22.62081 09 34 22.13 -07 45 44.3 20.0   608 – Haleakala-AMOS MPS 97006
2004 01 22.63157 09 34 21.61 -07 45 44.0 20.0   608 – Haleakala-AMOS MPS 97006
2004 01 22.64245 09 34 21.17 -07 45 43.8 20.2   608 – Haleakala-AMOS MPS 97006
2004 01 28.34346 09 30 03.85 -07 39 31.6 19.5   704 – Lincoln Laboratory ETS, New Mexico MPS 97801
2004 01 28.36837 09 30 02.64 -07 39 28.1 19.2   704 – Lincoln Laboratory ETS, New Mexico MPS 97801
2004 01 28.38119 09 30 01.94 -07 39 25.9 19.5   704 – Lincoln Laboratory ETS, New Mexico MPS 97801
2004 01 28.52610 09 29 55.00 -07 39 08.4 20.4   608 – Haleakala-AMOS MPS 97801
2004 01 28.53672 09 29 54.45 -07 39 07.4 20.4   608 – Haleakala-AMOS MPS 97801
2004 01 28.54725 09 29 53.93 -07 39 06.3 20.6   608 – Haleakala-AMOS MPS 97801
2004 02 19.28854 09 11 34.56 -05 53 47.7 18.9   704 – Lincoln Laboratory ETS, New Mexico MPS 100070
2004 02 19.30080 09 11 33.95 -05 53 42.3 18.9   704 – Lincoln Laboratory ETS, New Mexico MPS 100070
2004 02 19.31262 09 11 33.35 -05 53 36.0 19.1   704 – Lincoln Laboratory ETS, New Mexico MPS 100070
2004 02 19.32453 09 11 32.75 -05 53 31.2 19.2   704 – Lincoln Laboratory ETS, New Mexico MPS 100070
2004 02 19.33651 09 11 32.23 -05 53 23.9 19.6   704 – Lincoln Laboratory ETS, New Mexico MPS 100070
2004 03 16.15354 08 57 21.37 -02 11 41.7 20.4 V 703 – Catalina Sky Survey MPS 101184
2004 03 16.16610 08 57 21.09 -02 11 36.9 19.7 V 703 – Catalina Sky Survey MPS 101184
2004 03 16.17403 08 57 20.94 -02 11 33.8 18.7   704 – Lincoln Laboratory ETS, New Mexico MPS 101184
2004 03 16.17866 08 57 20.95 -02 11 30.2 19.4 V 703 – Catalina Sky Survey MPS 101184
2004 03 16.18484 08 57 20.79 -02 11 27.8 19.4   704 – Lincoln Laboratory ETS, New Mexico MPS 101184
2004 03 16.19119 08 57 20.81 -02 11 22.0 19.4 V 703 – Catalina Sky Survey MPS 101184
2004 03 16.19583 08 57 20.58 -02 11 22.3 19.3   704 – Lincoln Laboratory ETS, New Mexico MPS 101184
2004 03 16.20657 08 57 20.47 -02 11 16.0 19.4   704 – Lincoln Laboratory ETS, New Mexico MPS 101184
2004 03 16.21742 08 57 20.30 -02 11 10.6 19.3   704 – Lincoln Laboratory ETS, New Mexico MPS 101184
2005 06 05.335317 17 00 47.628 -09 07 00.44 19.20 V 645 – Apache Point-Sloan Digital Sky Survey MPS 389706
2005 06 05.338789 17 00 47.434 -09 06 59.41 20.14   645 – Apache Point-Sloan Digital Sky Survey MPS 389706
2005 06 29.23111 16 41 21.91 -07 43 08.1 19.6 V 691 – Steward Observatory, Kitt Peak-Spacewatch MPS 137335
2005 06 29.24661 16 41 21.28 -07 43 06.4 19.6 V 691 – Steward Observatory, Kitt Peak-Spacewatch MPS 137335
2005 06 29.25935 16 41 20.77 -07 43 05.1 19.6 V 691 – Steward Observatory, Kitt Peak-Spacewatch MPS 137335
